Temperature
20 19 20 19 19 19 19 19 19 19 19 19 19 19 19 19 19 19 18 18 18 18 18 18 18 18 18 18 18 18 18 17 17 17 17 17 17 17 17 17 17 16 17
20 19 20 19 19 19 19 19 19 19 19 19 19 19 19 19 19 18 18 18 18 18 18 18 18 18 18 18 18 18 17 17 17 17 17 17 17 17 17 17 16 16 17
20 19 20 19 19 19 19 19 19 19 19 19 19 19 19 19 18 18 18 18 18 18 18 18 18 18 18 18 18 17 17 17 17 17 17 16 17 17 17 17 17 17 17
20 19 19 19 19 19 19 19 19 19 19 19 19 19 19 19 18 18 18 18 18 18 18 18 18 18 18 18 17 17 17 17 17 17 17 16 16 17 17 17 17 17 17
20 19 19 20 19 19 19 19 19 19 19 19 19 19 19 18 18 18 18 18 18 18 18 18 18 18 18 18 17 17 17 17 17 17 16 16 16 17 17 16 17 17 16
19 19 19 20 19 19 19 19 19 19 19 19 19 19 18 18 18 18 18 18 18 18 18 18 18 18 18 18 17 17 17 17 17 17 16 16 16 17 17 17 17 17 16
20 19 19 20 20 19 19 19 19 19 19 19 19 18 18 18 18 18 18 18 18 18 18 18 18 18 18 17 17 17 17 17 17 17 16 16 16 17 17 17 17 16 16
20 19 18 19 19 19 19 19 19 19 19 19 18 18 18 18 18 18 18 18 18 18 18 17 17 17 17 17 17 17 17 17 17 17 16 16 17 17 17 17 16 16 16
20 20 18 18 19 19 19 19 19 19 19 18 18 18 18 18 18 18 18 18 18 18 18 17 17 17 17 17 17 17 17 17 17 17 17 16 17 17 17 16 16 16 16
20 20 19 19 18 18 19 19 19 19 18 18 18 18 18 18 18 18 17 17 18 17 17 18 17 17 17 17 17 17 17 17 18 17 17 16 17 16 16 16 16 16 16
20 20 19 19 18 18 18 18 18 18 18 18 18 18 18 17 17 17 17 18 18 17 17 17 17 17 17 17 17 17 17 17 18 17 17 17 17 17 17 16 16 16 16
19 19 19 19 18 18 18 18 18 18 18 18 17 17 17 17 17 17 17 17 18 18 18 18 17 17 17 17 17 17 17 17 18 17 17 17 17 17 17 16 16 16 16
19 19 19 19 18 18 18 18 18 18 18 18 17 17 17 17 17 17 17 17 17 17 17 17 17 17 17 17 17 17 17 17 18 17 17 17 17 17 17 17 16 16 16
19 19 19 19 18 18 18 18 18 18 18 18 18 17 17 17 17 17 17 17 17 17 17 17 17 17 17 17 17 17 17 17 17 17 17 17 17 17 17 17 17 16 16
19 19 19 18 18 18 18 18 18 18 18 18 18 18 17 17 17 17 17 17 17 17 17 17 17 17 17 17 17 17 17 17 17 17 17 17 17 17 17 17 17 16 16
19 19 19 19 19 19 19 18 18 18 18 18 18 17 17 17 17 17 17 17 17 17 17 17 17 17 17 17 17 17 17 17 17 16 16 17 17 17 17 16 16 16 16
19 19 19 19 19 19 18 18 18 18 18 18 18 18 18 17 17 17 17 17 17 17 17 17 17 17 17 17 17 17 17 17 17 16 16 16 16 17 17 17 16 16 16
19 19 19 19 19 19 19 19 18 18 18 18 18 18 18 17 17 17 17 17 17 17 17 17 17 17 17 17 17 17 17 17 17 16 16 16 16 16 16 17 16 16 16
20 20 20 19 19 19 19 19 18 18 18 18 17 17 18 18 18 17 17 17 17 17 17 17 17 17 17 17 17 17 17 17 17 17 17 16 16 16 16 16 16 16 16
20 20 20 20 20 19 19 19 18 18 18 18 18 18 18 18 18 17 17 17 17 17 17 17 17 17 17 17 18 18 17 17 17 17 17 17 16 16 16 16 16 16 16
19 19 20 19 19 19 19 18 18 18 18 18 18 18 18 18 17 18 17 17 17 17 17 17 17 17 17 17 17 17 17 17 17 17 17 17 17 17 16 16 16 16 16
19 19 19 19 19 19 19 19 18 18 18 18 18 18 18 18 17 17 17 17 17 17 17 17 17 17 17 17 17 18 18 18 17 18 17 17 17 17 17 17 16 16 16
19 19 19 19 19 19 19 18 18 18 18 18 18 18 18 18 17 17 17 17 17 17 17 17 17 17 17 17 17 18 19 19 19 18 18 17 17 17 17 17 17 16 16
19 19 19 19 19 19 19 18 18 18 18 18 18 18 18 18 17 17 17 17 17 17 17 17 17 17 17 17 17 17 18 18 19 19 18 18 17 17 17 17 17 17 16
19 19 19 19 19 19 19 18 18 18 18 18 18 18 18 18 17 17 17 17 17 17 17 17 17 17 17 17 17 17 17 17 18 18 19 18 18 18 17 17 17 17 17
19 19 18 18 18 18 18 18 18 18 18 17 17 17 18 17 17 17 17 17 17 17 17 17 17 17 17 17 17 17 17 18 18 18 19 18 19 18 18 17 17 17 17
Wind_Speed
14 17 17 15 16 16 17 18 18 18 17 17 16 15 15 14 14 13 13 13 13 13 14 14 14 14 14 15 15 15 16 16 16 16 17 17 17 16 16 15 15 18 17
18 20 19 17 16 16 17 18 18 18 17 16 16 15 15 14 13 13 12 13 13 13 14 14 14 14 15 15 15 15 15 16 16 16 17 17 16 15 13 12 13 16 16
20 21 20 17 17 17 17 17 18 17 17 16 15 15 14 13 13 12 12 13 13 14 14 14 14 15 15 15 15 15 15 15 14 14 13 15 16 14 14 15 17 16 16
20 21 19 19 17 17 17 17 17 17 16 15 15 14 14 13 13 13 13 13 13 14 14 14 15 15 15 15 15 15 15 14 12 9 10 13 15 15 14 15 15 15 15
19 19 20 19 18 17 17 17 16 16 16 15 14 14 13 13 13 13 13 13 13 14 14 14 14 14 14 14 14 14 14 13 8 6 12 12 14 14 14 14 15 15 14
18 19 21 19 18 17 17 16 16 16 15 14 14 13 13 12 12 13 13 13 13 13 13 14 14 14 14 14 13 13 12 10 8 11 11 12 13 13 13 14 14 14 14
19 19 22 19 19 17 17 16 16 15 15 14 13 13 13 12 12 13 13 13 13 13 13 13 13 13 13 13 12 12 10 5 7 10 10 12 14 13 13 13 13 13 13
18 18 21 19 18 17 17 16 15 15 14 13 13 13 12 12 12 12 13 13 13 13 12 12 12 12 12 12 12 11 9 4 9 10 10 12 13 12 12 12 13 12 12
17 17 19 19 18 17 16 15 15 14 13 13 12 12 12 12 12 12 12 12 13 13 12 11 11 10 11 11 11 10 7 1 6 9 10 11 12 11 11 11 12 12 12
16 16 16 17 17 17 16 15 14 13 13 12 12 12 12 12 11 11 12 12 12 12 11 10 10 9 10 10 10 10 8 5 7 9 8 12 11 10 10 10 11 11 11
15 14 15 16 15 15 15 16 15 14 13 13 12 12 12 11 11 11 12 12 11 11 10 9 9 8 9 10 10 9 8 4 7 7 8 13 10 9 9 10 10 10 10
17 16 14 14 14 14 12 14 13 13 13 11 11 12 9 7 7 9 13 10 10 10 10 9 8 9 8 9 10 10 5 5 6 7 10 11 9 9 9 9 9 9 9
17 16 15 13 13 13 10 11 9 9 10 10 10 9 7 8 8 8 9 10 10 11 9 10 9 6 5 5 5 5 4 4 4 6 11 10 9 9 9 9 8 8 8
18 17 15 14 13 12 10 9 9 8 8 9 10 10 9 6 6 6 6 7 7 7 6 7 5 5 4 4 4 4 4 3 4 5 10 10 8 8 8 8 8 8 8
17 16 15 14 13 11 9 8 9 8 9 9 9 9 8 7 6 6 5 5 5 5 6 5 5 5 4 5 4 5 4 3 4 4 9 10 8 8 8 8 8 8 7
17 16 15 15 14 12 10 8 8 8 8 9 9 10 9 7 6 6 6 5 5 5 4 4 5 5 5 4 4 4 4 4 4 3 6 10 9 8 8 8 8 8 8
17 16 15 15 14 13 12 11 9 9 9 8 8 9 9 8 7 6 5 6 5 5 5 4 5 5 4 4 4 4 4 4 5 4 4 6 9 10 9 8 8 8 9
16 16 16 14 15 14 12 10 9 9 9 8 8 9 10 8 8 7 5 6 6 6 6 5 5 5 4 4 4 4 4 5 5 6 6 5 6 7 11 11 10 9 9
16 17 16 15 15 15 13 10 9 8 8 8 8 9 9 9 9 7 5 5 7 6 5 5 5 5 4 4 4 4 4 4 5 6 5 6 6 6 7 12 12 11 10
15 16 16 16 15 14 12 10 8 9 8 8 8 9 10 10 10 8 7 7 7 6 5 5 4 4 4 4 4 4 4 4 5 5 6 6 7 7 8 7 10 12 13
15 16 16 16 15 13 11 11 10 10 9 8 8 10 11 11 10 9 7 7 7 6 6 7 6 7 6 4 4 4 5 6 6 5 6 6 7 8 7 7 8 7 10
15 16 16 17 16 15 12 11 9 9 8 8 8 9 11 11 11 10 8 7 8 6 7 7 7 6 5 6 5 4 4 5 6 7 6 7 7 7 8 9 9 8 8
15 16 15 17 16 16 14 11 9 8 7 8 9 9 11 12 12 10 10 9 8 8 7 8 8 8 6 6 6 4 4 4 4 6 7 7 6 6 7 8 10 10 10
14 14 15 16 16 16 15 13 14 12 11 11 9 9 10 12 12 12 11 10 9 8 7 9 8 7 7 6 6 6 6 3 3 4 6 7 7 8 8 7 8 9 10
12 13 14 15 15 15 15 15 15 13 11 9 9 9 9 9 11 12 12 11 10 9 8 8 7 9 8 8 6 6 7 5 7 5 4 4 6 7 7 8 7 8 9
9 11 13 14 15 15 15 15 15 14 13 11 11 10 9 8 9 12 12 11 10 9 9 9 9 10 8 8 7 7 6 6 6 6 6 6 5 5 6 6 7 7 8
Wind_Direction
149 141 140 140 137 135 134 135 134 133 131 130 128 126 123 119 116 113 111 110 109 107 107 109 109 109 110 110 110 109 109 109 109 110 110 108 107 108 109 116 118 106 108
145 141 142 141 138 135 134 134 134 134 133 131 129 127 123 120 118 115 112 112 110 108 107 108 109 109 111 111 111 111 110 110 111 113 115 111 108 107 105 99 92 108 114
144 141 147 142 139 136 134 133 134 134 133 131 129 127 124 121 119 116 114 111 110 109 109 108 109 109 109 110 111 111 109 109 113 122 131 117 110 105 101 99 102 111 112
144 145 148 143 141 138 136 135 134 134 132 131 129 128 125 123 121 118 115 113 112 111 110 110 111 110 110 110 111 111 111 112 120 151 123 110 111 106 106 107 110 111 111
144 143 141 147 144 141 139 137 136 135 134 133 132 130 127 125 123 120 116 115 114 113 112 112 112 112 113 112 112 113 113 117 143 138 99 102 104 108 108 109 111 112 112
146 147 143 150 146 144 142 140 138 138 137 136 135 133 130 127 125 122 118 117 115 113 113 113 113 114 113 114 114 115 119 139 166 105 108 110 109 111 111 111 111 112 113
151 148 146 151 148 147 146 144 141 140 140 138 136 133 131 128 126 123 120 118 116 115 115 115 116 116 116 118 118 120 126 162 108 106 111 104 107 114 113 113 112 112 112
153 150 145 152 151 150 149 147 144 143 142 140 138 136 133 130 126 124 123 121 118 117 117 116 117 118 121 121 122 126 138 186 116 108 102 102 110 117 116 116 117 116 114
156 150 152 156 155 154 152 150 148 146 144 142 140 137 135 130 126 126 126 124 122 122 120 119 118 119 121 125 130 131 134 240 117 113 111 109 116 120 120 121 123 121 119
161 158 157 160 159 161 159 155 152 150 148 145 142 140 137 133 131 133 137 127 126 126 125 123 121 122 125 130 133 135 150 200 123 121 113 113 121 123 124 126 127 124 123
167 164 165 162 163 166 162 155 160 156 154 155 152 149 159 155 145 151 124 128 131 131 131 129 128 131 141 142 141 149 179 158 122 112 104 114 131 133 131 129 129 129 127
173 173 170 168 165 168 162 160 168 168 163 173 159 162 166 145 141 128 121 134 137 137 139 137 141 162 186 153 152 177 175 143 132 124 113 126 139 142 139 137 138 138 135
175 177 173 170 168 173 165 168 170 168 163 170 163 165 157 153 149 143 146 149 154 161 160 153 176 179 163 130 152 164 149 145 135 126 127 141 150 152 148 147 148 148 144
179 180 177 171 174 177 173 172 173 171 169 169 164 175 164 164 161 150 156 155 162 161 160 170 171 162 148 146 151 145 153 166 134 116 129 148 159 161 159 158 159 158 156
180 181 180 176 176 176 177 184 180 175 175 168 166 175 175 170 170 156 154 160 166 155 165 178 175 160 168 171 173 158 160 155 134 136 135 153 165 171 171 170 172 171 171
183 182 180 181 179 178 181 188 182 179 179 175 176 174 183 179 168 166 168 170 171 173 167 176 168 173 186 172 181 165 177 159 148 163 151 157 172 181 185 184 185 185 184
184 183 182 183 182 184 187 189 187 186 183 185 177 175 185 187 176 183 177 182 179 173 171 186 178 183 186 185 184 179 176 175 159 172 169 167 172 184 193 196 196 196 195
184 184 184 185 184 187 189 190 190 193 189 189 184 180 187 189 189 197 191 190 178 189 188 180 199 198 195 198 185 194 172 169 174 182 184 186 188 182 186 196 203 205 205
186 184 186 190 187 188 188 187 193 191 196 194 191 190 187 193 194 205 203 189 192 197 201 206 185 209 195 201 193 187 191 187 180 193 198 201 195 201 190 180 197 206 211
188 186 188 190 187 186 186 186 191 195 198 199 197 196 195 198 198 208 206 198 207 202 204 212 191 206 208 206 220 182 193 195 202 195 209 207 204 205 210 195 196 201 208
188 188 189 190 187 185 185 187 190 194 196 200 203 202 202 205 201 208 217 197 213 209 211 207 205 199 209 204 215 206 203 206 208 205 213 216 209 210 215 210 218 214 200
190 192 191 191 188 188 189 190 192 191 196 202 210 203 208 206 206 204 212 212 210 211 212 214 214 222 207 201 222 219 213 203 213 212 206 214 220 210 213 213 217 221 235
192 195 195 192 189 189 188 187 188 189 196 201 208 208 210 208 208 215 210 216 212 217 210 213 210 222 220 210 222 232 236 226 202 197 209 215 218 223 225 216 217 217 224
195 194 193 190 191 191 190 191 190 195 202 205 205 204 207 210 211 212 215 215 215 219 211 218 212 221 226 222 215 235 259 300 251 206 203 204 212 222 232 233 224 218 220
195 193 192 192 193 194 196 195 196 203 208 206 204 204 209 210 213 213 214 215 215 220 219 227 215 225 224 231 226 221 229 233 246 256 237 217 214 220 219 226 235 232 223
190 190 189 192 196 196 199 201 203 206 206 205 206 203 206 212 214 214 215 215 217 220 217 220 221 221 230 233 238 234 230 232 236 239 246 239 234 225 218 226 233 232 229
Height
1521 1522 1523 1526 1528 1531 1533 1535 1536 1538 1539 1541 1542 1543 1544 1545 1546 1547 1548 1549 1550 1551 1552 1553 1554 1554 1555 1556 1557 1557 1558 1559 1559 1560 1561 1562 1563 1564 1565 1566 1567 1568 1568
1520 1522 1524 1527 1530 1532 1534 1536 1538 1540 1541 1543 1544 1545 1546 1547 1549 1550 1551 1551 1552 1553 1554 1555 1556 1557 1557 1558 1559 1560 1560 1561 1562 1563 1564 1564 1565 1566 1568 1568 1569 1570 1570
1521 1523 1525 1528 1531 1534 1536 1538 1540 1542 1544 1545 1546 1547 1549 1550 1551 1552 1553 1554 1554 1555 1556 1557 1558 1559 1560 1560 1561 1562 1563 1564 1565 1565 1567 1568 1568 1569 1570 1571 1571 1572 1573
1522 1525 1527 1530 1533 1535 1538 1540 1542 1544 1545 1547 1548 1550 1551 1552 1553 1554 1555 1556 1556 1557 1558 1559 1560 1561 1562 1563 1564 1565 1565 1566 1567 1568 1571 1572 1572 1571 1572 1573 1573 1574 1575
1524 1527 1528 1531 1534 1537 1539 1542 1544 1545 1547 1549 1550 1551 1553 1554 1555 1556 1557 1558 1558 1559 1560 1561 1562 1563 1564 1565 1566 1567 1568 1569 1570 1572 1573 1573 1574 1573 1574 1575 1576 1576 1577
1525 1528 1529 1533 1536 1538 1541 1543 1545 1547 1549 1550 1552 1553 1554 1555 1557 1558 1559 1560 1561 1562 1563 1564 1565 1566 1567 1568 1568 1569 1570 1571 1573 1575 1575 1576 1576 1575 1576 1577 1578 1579 1580
1527 1530 1531 1534 1537 1540 1542 1545 1547 1548 1550 1552 1553 1555 1556 1557 1558 1559 1560 1562 1563 1564 1565 1566 1567 1568 1569 1570 1571 1571 1572 1573 1577 1577 1577 1578 1577 1578 1579 1579 1580 1581 1582
1529 1532 1532 1535 1538 1541 1544 1546 1548 1550 1552 1553 1555 1556 1558 1559 1560 1561 1562 1563 1564 1566 1567 1568 1569 1570 1571 1572 1573 1573 1575 1576 1578 1579 1580 1580 1579 1580 1581 1581 1582 1583 1584
1531 1533 1534 1537 1539 1542 1545 1547 1549 1551 1553 1555 1556 1558 1559 1560 1562 1563 1564 1565 1566 1567 1569 1570 1571 1572 1573 1574 1575 1576 1577 1577 1581 1581 1582 1581 1581 1582 1582 1583 1584 1585 1586
1532 1534 1536 1539 1541 1544 1546 1548 1550 1552 1554 1556 1557 1559 1560 1562 1563 1564 1566 1567 1568 1569 1570 1571 1573 1574 1575 1576 1577 1578 1578 1580 1583 1583 1583 1583 1582 1583 1584 1585 1586 1587 1587
1532 1535 1537 1540 1542 1546 1548 1549 1551 1553 1555 1557 1558 1560 1562 1564 1566 1567 1568 1568 1569 1571 1572 1573 1574 1575 1576 1577 1578 1579 1580 1583 1584 1585 1584 1583 1584 1585 1586 1586 1587 1588 1589
1530 1534 1537 1540 1542 1546 1549 1550 1553 1555 1556 1558 1560 1561 1564 1565 1567 1568 1568 1569 1570 1572 1573 1574 1575 1577 1578 1580 1580 1580 1583 1584 1585 1585 1584 1584 1585 1586 1587 1588 1589 1589 1590
1528 1532 1536 1539 1541 1545 1548 1550 1553 1555 1556 1559 1560 1562 1564 1566 1567 1569 1570 1570 1572 1573 1575 1575 1577 1580 1581 1581 1582 1583 1584 1585 1586 1587 1585 1585 1586 1587 1588 1589 1589 1590 1591
1527 1530 1535 1538 1540 1544 1547 1550 1552 1555 1556 1559 1559 1562 1564 1566 1568 1570 1570 1572 1573 1575 1576 1577 1579 1580 1581 1582 1583 1583 1584 1585 1586 1587 1585 1586 1587 1587 1588 1589 1590 1591 1592
1525 1529 1532 1535 1539 1542 1545 1549 1552 1554 1557 1558 1560 1561 1564 1566 1568 1569 1570 1572 1574 1575 1576 1577 1579 1580 1581 1582 1583 1584 1584 1585 1586 1587 1586 1586 1587 1588 1589 1589 1590 1591 1592
1523 1527 1530 1533 1537 1540 1543 1547 1550 1553 1555 1558 1559 1561 1563 1566 1567 1569 1570 1571 1574 1575 1577 1577 1579 1580 1581 1582 1583 1583 1584 1585 1585 1586 1587 1586 1587 1588 1588 1589 1590 1591 1591
1520 1524 1528 1531 1535 1538 1542 1546 1549 1552 1554 1557 1559 1560 1562 1565 1566 1568 1570 1571 1573 1575 1575 1577 1578 1579 1580 1581 1582 1583 1583 1584 1585 1585 1586 1587 1587 1587 1588 1589 1589 1590 1591
1518 1521 1525 1529 1533 1536 1540 1544 1548 1551 1553 1555 1558 1559 1561 1563 1565 1567 1569 1571 1572 1574 1575 1576 1578 1579 1580 1581 1582 1582 1583 1583 1584 1585 1586 1586 1587 1588 1588 1588 1589 1589 1590
1515 1518 1522 1526 1530 1534 1538 1541 1545 1548 1551 1554 1556 1558 1560 1562 1564 1566 1568 1570 1571 1573 1574 1576 1577 1578 1579 1580 1581 1581 1582 1583 1583 1584 1585 1586 1586 1587 1588 1587 1588 1588 1589
1512 1516 1519 1524 1527 1531 1535 1539 1542 1545 1548 1551 1554 1556 1558 1560 1562 1564 1567 1568 1570 1572 1573 1574 1575 1576 1577 1578 1580 1581 1581 1582 1582 1583 1584 1584 1585 1586 1587 1587 1587 1587 1587
1509 1512 1516 1520 1524 1528 1532 1535 1539 1542 1545 1549 1551 1553 1555 1558 1560 1562 1565 1566 1568 1570 1571 1573 1574 1575 1576 1577 1579 1579 1580 1580 1581 1581 1582 1583 1584 1584 1585 1585 1586 1586 1586
1506 1509 1513 1516 1520 1524 1528 1532 1536 1540 1543 1546 1549 1550 1553 1555 1557 1560 1562 1564 1566 1567 1569 1570 1571 1574 1575 1576 1577 1578 1578 1580 1579 1580 1580 1580 1582 1582 1583 1583 1583 1584 1585
1503 1506 1509 1512 1516 1520 1525 1529 1533 1536 1539 1542 1545 1547 1550 1552 1555 1557 1559 1562 1563 1565 1567 1568 1569 1571 1573 1574 1575 1576 1576 1576 1576 1577 1578 1578 1579 1580 1581 1581 1581 1582 1582
1501 1504 1506 1509 1512 1517 1521 1524 1528 1531 1534 1537 1540 1544 1546 1549 1551 1554 1556 1558 1560 1562 1564 1565 1567 1568 1570 1571 1572 1573 1574 1574 1575 1575 1576 1576 1576 1577 1578 1579 1580 1580 1579
1499 1501 1503 1506 1509 1513 1517 1520 1524 1527 1530 1534 1537 1539 1542 1545 1548 1550 1552 1555 1556 1559 1560 1562 1564 1565 1567 1568 1569 1571 1572 1572 1573 1573 1573 1574 1574 1575 1575 1575 1576 1577 1577
1497 1499 1501 1503 1506 1510 1513 1517 1520 1523 1526 1529 1532 1534 1538 1541 1544 1546 1548 1550 1553 1555 1557 1558 1560 1562 1563 1565 1566 1568 1569 1570 1570 1571 1571 1571 1572 1572 1572 1573 1573 1574 1574